[分享] 今日大谷翔平 13K創個人新紀錄

看板 Baseball
作者
時間
留言 867則留言,770人參與討論
推噓 764 ( 767推 3噓 97→ )
討論串 3
投手大谷 https://i.imgur.com/V5OyVHa.jpg
IP H R ER BB SO HR ERA 球數 MAX 8.0 2 0 0 1 13 0 2.90 108-71 100 mph 大谷今天燃燒生命展現神級表現 第一局雖然連續被打兩支安打 但之後不但順利下庄,之後幾局也沒讓對手打出任何安打 皇家打者今天鎖定速球攻擊,好在大谷今天變化球狀況不錯,頻頻三振打者 也讓他飆出MLB個人生涯單場最多的13次三振 主投8局用了108球也是今年最多 ERA降到2.90 打者翔平 https://i.imgur.com/QyyWBtm.jpg
┌──┬─┬─┬─┬──┬─┬─┬─┬─┬─┬───┐ │ AVG│AB│ R│ H│ RBI│2B│3B│HR│BB│ K│ OPS │ ├──┼─┼─┼─┼──┼─┼─┼─┼─┼─┼───┤ │.260│ 3│ 0│ 1│ 0 │ 0│ 0│ 0│ 2│ 2│0.823 │ └──┴─┴─┴─┴──┴─┴─┴─┴─┴─┴───┘ 昨天有神級表現的翔平今天表現相對普通 有一支內野安打也選到2次保送 吞下2次三振 OPS微升到0.823 最終天使以5:0打敗皇家隊 大谷又擔任一次止敗者角色,拿下本季第六勝 昨天翔平創下個人單場最多打點紀錄 今天大谷創下個人單場最多奪三振+8局無失分 https://i.imgur.com/zZWBrCX.jpg
我看了什麼= = --
※ 發信站: 批踢踢實業坊(ptt.cc), 來自: 219.68.237.142 (臺灣) ※ 文章網址: https://www.ptt.cc/bbs/Baseball/M.1655960767.A.B20.html
1Fboodharu: 昨天打8分,今天投8局13k,都給你玩就好了^U^ 06/23 13:06
2FRoystu: 笑死 06/23 13:06
3Fmosap: 爽啦!!!!!!!!!!!!!!!!! 06/23 13:06
4Ftonyookk: 笑死 翔平獲得的保送比大谷送出的保送多 06/23 13:06
5Fssss06: 神神神神神神神 06/23 13:06
6Fedhuang: 看到神了 06/23 13:06
7Fsherlock523: 猛 06/23 13:06
8Ffxm20334: 快 06/23 13:06
9Fdrummerkrist: 超猛 06/23 13:06
10Fjkl85621: 太神啦大谷翔平 06/23 13:06
11Ftomedc14: 快 06/23 13:06
12Ffrog0824: 棒球之神再世 06/23 13:06
13Fsteven183: 鬼 06/23 13:06
14Flmf770410: 愛菜生日快樂 06/23 13:06
15Fneo19: https://imgur.com/n6dMhWA 06/23 13:06
16Fmikilin23: 神之谷降臨!!!!!!!!!!!!!!!!!!!!!!!!!!!!!!! 06/23 13:06
17Fwastina0923: 猛啊 06/23 13:06
18FWayneNix: 讚 06/23 13:06
19Fcocytus39: 神 06/23 13:06
20Fneo19: https://imgur.com/ZaMSRiN 06/23 13:06
21Fkaze1225: 真・甲子園 06/23 13:06
22FLukeSkywaker: 推 06/23 13:06
23Fqazzaq42: 太神啦 06/23 13:06
24Fden1208: 大谷 我的超人 06/23 13:06
25Fmkncle7836: 雙刀人 我的超人 06/23 13:06
26FHarretly: 6W 06/23 13:06
27Fleo79415: 笑死 06/23 13:06
28Fseven782: 就你最快 06/23 13:06
29FLukeSkywaker: 神串留名 06/23 13:06
30Fjackeynt: 跟鬼一樣 06/23 13:06
31Fbluebear44: 太神啦 小大谷被打到之後直接起飛 06/23 13:06
32Frick8510: 笑死 跟鬼一樣 06/23 13:06
33Fericinttu: 小谷呢? 06/23 13:06
34FLIGAGA: 愛菜生日快樂! 06/23 13:06
35Fmyhope203: 超強 06/23 13:06
36FLSLLtu: 笑死,翔平的保送還比大谷多 06/23 13:06
37Fhuohuai: 感動,留名QAQ 06/23 13:06
38Fleion237: 真強者 06/23 13:06
39Froywow: 太神啦 06/23 13:06
40FNSYSUheng: 今天大谷太神啦 翔平還OK 06/23 13:07
41Fsakurazaki: 笑死,一人球隊 06/23 13:07
42FYjizz: 累啊 06/23 13:07
43Fmax0616: 太神辣笑死 06/23 13:07
44Fsesd: 個人單場15K 06/23 13:07
45FLEEWY: 笑死啦,一人撐天使 06/23 13:07
46FRedShin: 超人 06/23 13:07
47Fa76126: 神 06/23 13:07
48FNakazone: 快 06/23 13:07
49Fyoyo99931: 鬼神 06/23 13:07
※ 編輯: Axwell (219.68.237.142 臺灣), 06/23/2022 13:07:26
50Fchan184966: 笑死 06/23 13:07
51Fsheng514155: 恭喜 06/23 13:07
52Fchargebro: 見證紀錄 06/23 13:07
53Fpolanco: 神 小谷還差點吃觸身球 06/23 13:07
54Fnwg2k562: 神 06/23 13:07
55FEdaw: 神串留名 06/23 13:07
56Fjessicadang: 太神啦 06/23 13:07
57FEwilliam: 太感動了!!! 06/23 13:07
58Flunlunno1: 超強! 06/23 13:07
59Fssss06: 我的超人可以進階成我的神了 06/23 13:07
61FGeorgebuy: 大谷與他的快樂夥伴 06/23 13:07
62Fa7696405: 留名,哈哈哈哈哈 06/23 13:07
63Fjameshu1995: 發現八打點贏不了,這場直接不給你得分 06/23 13:07
64FHanjiyu: 真的誇張強 06/23 13:07
65Fyooyum: 推 06/23 13:07
66Fkevinhong314: 讚讚 06/23 13:07
67Fsqark912: 愛菜生日禮物 06/23 13:07
68Fhtpk1346: 笑死 超鬼 06/23 13:07
69Fangel991213: 大谷翔平,我的超人 06/23 13:07
70Frongs: 真的好神 06/23 13:07
71Fk38382288: 強投豪打我笑死 06/23 13:07
72Fgfive110: 跪了 06/23 13:07
73Fpryu0121: 推 06/23 13:07
74Fsixsix666: 果然還是要靠大谷止敗,完美的一勝QQ辛苦啦 06/23 13:07
75Fee25025: 太強啦! 06/23 13:07
76Felainakuo: 留名 06/23 13:07
77Fsim34: 大谷 我的超人 06/23 13:07
78Fonepiece2041: 太神辣 06/23 13:07
79FHsiangFly: 大谷我的神! 06/23 13:07
80Fyoyo095235: 大谷 我的超人 06/23 13:07
81Ftry13286: 太神啦 06/23 13:07
82Fedhuang: 這兩場真的是世界棒球史傳奇之一... 06/23 13:07
83Fpeiqua: 太神啦 06/23 13:07
84Fjerry1815: 神!一定是在慶祝愛菜18歲生日! 06/23 13:07
85Fccmmj51: 這兩天全力谷發威,帥死了 06/23 13:07
86Fhenry1915: 太神啦 我的超人 06/23 13:07
87Fplatypusbm: 推 好強 06/23 13:07
88Fyoyo99931: 神串留名 06/23 13:07
89Fsimonbear: 各位GM麻煩捧大約排好隊 06/23 13:08
90Faskdrlin: 翔平的極限到底在哪里呢 06/23 13:08
91FFantasyChopi: 神串留名 06/23 13:08
92Fteata: 快!爽死~~~ 06/23 13:08
93Fvanvanvan: 太扯 06/23 13:08
94FBilison: 神串留名 06/23 13:08
95Fbenlinskyin: 笑死 有夠猛 06/23 13:08
96Fsteveliuiswg: 太神啦 06/23 13:08
97FAzure5200: 太神啦 06/23 13:08
98Flumi0811: 神串留名 06/23 13:08
99FBoNiAnn: 大谷 我的超人 06/23 13:08
100Faobocodo2004: 太神啦!!!! 06/23 13:08
101Fxzero0911: 笑死 開場打到小大谷以為涼了結果超會k 06/23 13:08
102Ftomlee1130: 太神啦 06/23 13:08
103Fdiditomtom: 太猛 06/23 13:08
104Fjustdoit: 愛菜生日連續兩天表現威猛 06/23 13:08
105FLys0727: 神 06/23 13:08
106Fkusork: 原來開關在小大谷身上 06/23 13:08
107FK951753: 去能贏的隊伍吧 06/23 13:08
108Fkinple: 大谷就是神! 06/23 13:08
109FMindWork: 笑死 賽到一個揚來看看 06/23 13:08
110Flaihom0808: 距離雙十剩M4,今年有機會吧? 06/23 13:08
111Fhonony: 大谷真的好強 這禮拜投打都在水準之上 06/23 13:08
112Fweakerman: 還不是靠愛菜成年 06/23 13:08
113Fsleepmilk: 謝謝新人及隊友支援。恭喜勝利。 06/23 13:08
114Fneo19: https://imgur.com/r05VDuQ 06/23 13:08
115Fskyca: 留名 06/23 13:08
116Ftryit0902: 神 06/23 13:08
117Foorflumpool: 神 06/23 13:08
118Fjkwhich: 神! 06/23 13:08
119FNakazone: 愛菜生日感謝祭 06/23 13:08
120Fa0987761110: 昨天打擊代表作 今天投球代表作 謝謝你皇家 06/23 13:08
121Frabbit38381: 大谷 我的超人! 06/23 13:08
122FHinaTomo: 8RBI贏不了 只好讓你一分都拿不到 06/23 13:08
123FDAVIDWAY: 神 06/23 13:08
124Fjiaxie: 今日榮耀獻予愛菜 06/23 13:08
125Feternal3326: 所以天使其他投手都在幹嘛啊 06/23 13:08
126Fsixsix666: 兩場紀錄加起來真的是嚇死人了 06/23 13:08
127Fgdd9659173: 神串留名 大谷 我的超人 06/23 13:08
128Fnastycurry: 誇張 06/23 13:08
129Fkaren8020: 神串留名 06/23 13:08
130Fjordannn02: 扯 06/23 13:08
131FIllenium: 大谷翔平 我的超人 06/23 13:08
132Fskyluka: 沒辦法笑死了,太神啦! 06/23 13:08
133Fjackeynt: 加油繼續往10勝邁進 06/23 13:08
134FAdiakyan: 笑死 還不是投不完九局 沒啦超強的收下我的膝蓋 06/23 13:08
135Fa0987761110: 差點打到蛋蛋 果然開啟了無雙機關 06/23 13:08
136Fayachyan: 我的超人 06/23 13:08
137Fseeking: 打者翔平的第一K, 看網頁比較像是保送 06/23 13:09
138Fq9999123: 超神 06/23 13:09
139FAirwaves318: 神串留名! 06/23 13:09
140Fharrishu: 勞工之恥 06/23 13:09
141Fweakerman: 愛菜成年,處男之力大爆發 06/23 13:09
142Fgaliyo: 留名 太神啦! 06/23 13:09
143Fpeter0114: 神串留名 06/23 13:09
144FGGKen: 8打點贏不了 只好自己來投 笑死 06/23 13:09
145Fcgian: 真的是熱血高中生欸 06/23 13:09
146FBarbie1353: 太神啦 06/23 13:09
147FRanceTsai: 谷我超 06/23 13:09
148Fyanwe: 笑死 有夠強 06/23 13:09
149Fpennyhsieh: 已跪 06/23 13:09
150Fsixsix666: 隊友今天有醒給點鼓勵XD 06/23 13:09
151Fwilliam7711: 真的是神 06/23 13:09
152Frxiang: 猛 06/23 13:09
153Fsukimq: 昨天一人扛8分,今天一人扛13K太神啦!!! 06/23 13:09
154Ftwtpcsilence: 大谷 我的超人!!! 把MLB當甲子園在打的男人!!! 06/23 13:09
155Fericinttu: 我的超神 06/23 13:09
156Fpetertu190: 用鬼神表現為愛菜獻上祝福 06/23 13:09
157Fcklovework: 昨天雙響8打點,今天8局無失分13k 06/23 13:09
158Ftakosom: 把MLB當成美國甲子園在打的男人 06/23 13:09
159Fa4268139: 防禦率又回2字頭了 06/23 13:09
160Fwilliam8403: 帥到不行 06/23 13:09
161Fjonwei: 神串留名 今年破紀錄機會很大 06/23 13:09
162Fiyoah: 666 06/23 13:09
163Ficou: 今年還是mvp級的表現 06/23 13:09
164FOyAlbert: 神猛高中生☺ 06/23 13:09
165Fiqzvfact: 真滴猛 06/23 13:09
166Flaihom0808: 打8分贏不了,不讓你們得分總可以了 06/23 13:09
167Fstrayfrog: 今天小谷開關被打開了 06/23 13:09
168Fkaren8020: 能跟大谷生活在同一個年代,真是太好了 06/23 13:10
169FRG5678: 笑死 06/23 13:10
170Fandre9: 猛 06/23 13:10
171Fainge: 今年看來應該很有機會達成10勝10轟的紀錄了... 06/23 13:10
172Faskdrlin: 神串留名 今年10勝30轟一樣是鬼神 06/23 13:10
173Fleo79415: 笑死 一人球隊膩 06/23 13:10
174Frexagi1988: 去年也是小大谷被摸才狂轟的阿 06/23 13:10
175Fhsgreent: 神 三振Sho 06/23 13:10
176FRiseagainst: 跟鬼一樣 06/23 13:10
177FMTBF: 連兩天封神 06/23 13:10
178Fkang271272: 真的是神 06/23 13:10
179Fwaiting0801: 推推!! 06/23 13:10
180Fsppray: 8打點.投8局.每週出賽六場,大谷還有進步空間,996沒聽過 06/23 13:10
181Fsppray: ? 06/23 13:10
182Felainakuo: 開關被打開了 06/23 13:10
183Floltrg42972: 跟神一樣 06/23 13:10
184Flaybear: 笑死 鬼神大谷太強啦 06/23 13:10
185Fdido0208: 都給你一人玩 06/23 13:10
186Fils0104: 昨天八打點,今天投八局 真的辛苦了 06/23 13:10
187Fsindarin: 太扯啦 我到底看了什麼 06/23 13:10
188Flookers: 今天打完不知道WAR能不能進前10名 06/23 13:10
189Fkeygo: 像在看野球太保一樣 06/23 13:10
190FSoQXuanChi: 太神了阿翔 06/23 13:10
191Fblazers08: 強 06/23 13:11
192Fe2167471: 太扯了 06/23 13:11
193Fsafyrose: 實在太令人感動了 06/23 13:11
194Fhank25790803: 真的扯 狀況超好 06/23 13:11
196Fcplzgr: 留名!!!!昨日翔平,今日大谷 06/23 13:11
197Fpingtung34: 到底是什麼怪物 06/23 13:11
198Ftakatura: 使用說明書:先嚇嚇小谷 06/23 13:11
200Fericinttu: 看哪天要變成三刀流 大小谷+翔平 06/23 13:11
201Floveabc: 超強 06/23 13:11
202FHelloFumi: 笑死 不敢完投 06/23 13:11
203Fhsiehiccup: 神扯留名 06/23 13:11
204FDPP48: 4千萬簽不簽? 06/23 13:11
205Fhuangjyuan: 有夠扯 留名 06/23 13:11
206Ftezukaizumi: 有夠帥 06/23 13:11
207Fe1472584: 神 06/23 13:11
208Ftomlee1130: 笑死,有夠強 06/23 13:11
209Fjhb0520: 8局13K才用108球,真的好鬼,要不是第一局用球數多了點 06/23 13:11
210Fs5894143: 卡通跟電動都不敢做這樣的人設啦 06/23 13:11
211Fkaren8020: 昨天雙響炮8分打點,今天8局13K 06/23 13:11
※ 編輯: Axwell (219.68.237.142 臺灣), 06/23/2022 13:12:13
212Fjhb0520: 有機會拚完封的說 06/23 13:11
213Felfsoosuk: 真的是我到底看了什麼(; Д `) 06/23 13:11
214Fzyic: 大聯盟被高中生通關XDDDD 06/23 13:12
215Fbenlinskyin: 絕高調 06/23 13:12
216Fnerv3890: 神串留名 06/23 13:12
217Felainakuo: 下次就挑戰完封 06/23 13:12
218Fcool28051775: 太神啦77777777 06/23 13:12
219Fx284yk6cjo5: 爽快 06/23 13:12
220Fwpd: 10勝穩了 06/23 13:12
221Fceltics1997: 還 蠻 屌 的 屌 爆 了 06/23 13:12
222Fcocojohn111: 真的雙刀流才能贏 這隊投手牛棚的爛爆了 06/23 13:12
223Flookers: 完封就真的沒有很重要 除非是無安打或是完全比賽 06/23 13:12
224Fjsstarlight: 留名 06/23 13:12
225Fvisviva: 大谷,來,抱一個 06/23 13:12
226Fcombro40: 鬼神 06/23 13:12
227Fa3300689: 大谷:我在國外打拼 等我回去 06/23 13:12
229Ffp737: 天氣熱了 該熱起來了 06/23 13:12
230Fkaren8020: 昨天翔平今天大谷,太神了 06/23 13:12
231FTim1018: 愛菜我來了 ( 胬ﴠ) 06/23 13:12
232FMindWork: 以後每場開埸求史黛西K小谷 06/23 13:12
233Fjlaiemc: 超人翔平 06/23 13:12
234Fjefflin0824: 7777777 06/23 13:12
235Fknight45683: 把MLB當甲子園打 大谷 我的超人 06/23 13:12
236Fglim: 笑死 最後一打席不敢轟 06/23 13:12
237FHsu1025: 這種怪物居然是亞洲人 日本人真猛 06/23 13:12
238Ftoyni: 好強喔 一個人打全部 06/23 13:12
239FWasJohnWall: 把BB還來啦 06/23 13:12
240FYoYoLee: 太神啦 開關打開了 06/23 13:12
242Fyaes111: 太狠了翔平 06/23 13:13
243Fbrg17: 神串留名 06/23 13:13
244Fkuo95: 吃兩K可惜了,第一K有空間 06/23 13:13
245Fabc22753939: 無聊 同一場投13K+8分打點再叫我 06/23 13:13
246Fdog990999: 昨天神打今天神投 漫畫走出來的 06/23 13:13
247FTr3vyy: 打了8分還贏不了 只能上去自己投了 06/23 13:13
248Fazureblood: 大谷翔平 延長春訓完畢 06/23 13:13
249Fasidy: 感謝捕手打開開關,小谷差點真的笑死 06/23 13:13
250FCassious: 隊友大概也知道昨天太丟臉,今天有醒來 06/23 13:13
251Fsp8pj236: 我的超人 06/23 13:13
252Fstrayfrog: 這比漫畫還誇張阿.... 06/23 13:13
253Fhsw0502: 笑死 都給你玩就好 06/23 13:13
254FDADA1920: 太猛 神串留名 06/23 13:13
255Fcocojohn111: 果然只有投球才能救天使 06/23 13:13
256FDADA1920: 漫畫都不敢這樣畫XD 06/23 13:13
257Fs65830056: 愛菜生日禮物 今天大谷送的 昨天翔平已送 06/23 13:13
258Fbear09931831: 昨有翔平打點破紀錄 今有大谷三振破紀錄!太神啦~ 06/23 13:14
259Fstanley2102: 漫畫都不敢這樣畫吧…… 06/23 13:14
260Fzxc906383: 爽 06/23 13:14
261Fhotboy: 屌炸天 06/23 13:14
262FjustAS: 來自愛菜的神秘力量? 06/23 13:14
263FBananaCake: 愛菜生日就是不一樣 06/23 13:14
264FMarsHone: 越來越強!能夠生在有大谷的年代真的太幸福了QQ 06/23 13:14
265Fbokhaktrncex: 火牛棚不能信就自己吃8局 超扯 06/23 13:14
266Flovejamwu: 吼!!! 06/23 13:14
267Fyuechen: 大谷 我的超人 06/23 13:14
268Frainstop1205: 推大谷&翔平 06/23 13:14
269Fijofi: 愛菜buff 06/23 13:14
270Filanese: 比漫畫情節還誇張。 06/23 13:14
271Frongs: 真的好神 06/23 13:15
272Fwadxmjh: 大谷賽前被打開神秘開關 06/23 13:15
273Flucky360: 這人的天賦是不是超越人類的極限了.....?? 06/23 13:15
274Fthangthang: 太神啦 06/23 13:15
275Fqwerty6z: 這人真的是超扯 06/23 13:15
276Fglobe1022: 大谷:抱歉未來老婆生日,想趕快回家 06/23 13:15
277Fstevejack: 神串留名 大谷翔平 我的超人 06/23 13:15
278Fr5566ex: 分數打不夠是吧 那就直接讓對手得不了分! 06/23 13:15
279Facnb: 太強了 好猛 06/23 13:16
280Fcocojohn111: 愛菜! 大谷的超人!! 06/23 13:16
281Fhaofutw: 大谷 我的超人 06/23 13:16
282FTrulli: 笑死 昨天8RBI 今天13K 勞工之恥 06/23 13:16
283Fji3g4dj42u4: 真是佩服 06/23 13:16
284Filford542: 好奇 日本人哪邊有在一直講愛菜梗嗎? 06/23 13:16
285FMarcoChieh: 笑死 昨天野手紀錄 今天換投手紀錄 06/23 13:16
286Fsvegetable: 超強 06/23 13:16
287FAJhe0924: 愛菜 這是我為妳準備的禮物噢✩ 06/23 13:16
288Ft81511270: == 自己扛8局 才有機會贏球 06/23 13:17
289Fjklm: 留名,太神了 06/23 13:17
290Forze04: 自己打再多分還不如讓對方一分都拿不到 06/23 13:17
291FPocer: 笑....笑死... 06/23 13:17
292Fcocojohn111: 換昨天那批投手 5分絕對不夠花 06/23 13:17
293FVivilinlin: 太帥 大谷我的超人 06/23 13:17
294FCarrarese: 愛菜18歲生日之力 06/23 13:17
295Fsean81117: 神串留名 大谷 我的超人 06/23 13:17
296Fai86109: 太神啦! 06/23 13:17
297Fjorgesoler: 刷弱隊 06/23 13:17
298Fwww456789789: 真的扯 06/23 13:17
299Ftims920999: 太強了 06/23 13:17
300Fkakashi71: 扯到爆 06/23 13:17
301Fphix: 待在天使真的太累了 還是轉隊好了 06/23 13:18
302Fjay0055846: 太神啦 06/23 13:18
303FLIGAGA: NHK最後的比賽回顧影片竟然有放賽前那顆丟小谷 06/23 13:18
304Flucky360: 如果大谷想娶 愛菜應該會嫁他吧? 06/23 13:18
305Flxf: 不要再留天使,快走 06/23 13:18
306Fhipnos: 連兩天神蹟! 跪了 06/23 13:18
307Fpili30155: 太神啦 06/23 13:18
308Fgalaraga911: 太強了天啊!! 06/23 13:18
309Fs10203042: 神串留名 今天難得看完一整場 真的精彩!! 06/23 13:18
310Fericlin5230: 開始吹票了 06/23 13:18
311Fsame60710: 神神神神神 06/23 13:18
312Fsolomon55987: Otani is Oni 大谷是鬼 06/23 13:18
313Fhotboy: 現代神獸! 06/23 13:18
314Fxylemelf: 太帥了!!!! 06/23 13:18
315Fdiediebird: 這個人真的是鬼,笑死 06/23 13:19
316FCLKGTR: 打8分贏不了,那自己來投8局 06/23 13:19
318Fadd20716: 大谷 我的超人 06/23 13:19
319Fteata: 明星賽開始灌票 06/23 13:19
320Fkait: 今天拯救了天使和牛棚 06/23 13:19
321FJC910: 笑死 一場居然拿13K 06/23 13:19
322Fphix: 這不用灌了 太扯了 06/23 13:19
323Fphoinixa: 啊他就愛那種高挑運動型,整天在那邊刷蘆田 06/23 13:19
324Fsallyna123: 我谷威武 06/23 13:20
325Ff66043284: 歷史級別的表現 06/23 13:20
326FSammingy: 神 06/23 13:20
327Flegendd: 神串留名 06/23 13:20
328Fqwamnbfgop21: 笑死 某人18歲了就興奮到狂K 06/23 13:20
329Fjimm900: 太神啦 06/23 13:20
330Fdragon50119: 用勝投慶祝愛菜生日快樂 06/23 13:20
331FMaRin0725: 太神啦 06/23 13:20
332Fjhunfong: 這什麼漫畫人物 06/23 13:20
333Frevise: 太神 好險沒問天 06/23 13:21
334Fa08n090: 我怎麼覺得他這樣投,手會再受傷 06/23 13:21
335Fwayne5992: 人類史上最全能的棒球員 恐怖 06/23 13:21
336Fsallyna123: 打到小谷顛倒勇 06/23 13:21
337FROMEL: 七下那個見三振應該是四壞的...... 06/23 13:21
338FbearKQG: 太神啦 鬼 06/23 13:21
339Fvediogames: 真 打分數贏不了 就不給你得分 06/23 13:21
340Fcocojohn111: 昨天牛棚被打爆 今天必須要投八局 真的血汗勞工 06/23 13:21
341Forze04: 道奇給張大約 天使拿去補強 大谷也不用那麼血汗 三方都贏 06/23 13:21
342Fwenshin: 太神了 06/23 13:21
343Fredblouse: 太神啦 06/23 13:21
344Ftn00037166: 昨天8RBI 今天13K 漫畫都沒這麼誇張 06/23 13:22
345Fxrayxrayxray: 真的太強了 06/23 13:22
346Fkitten123: 好神 06/23 13:22
347Ffirewulala: 原來是因為愛菜<3 06/23 13:22
348Fkris080824: 神 06/23 13:22
349Fa23938554: 笑死 你除了會8打點跟13K還會什麼 06/23 13:22
350Fasos7747: 一個人的野球 06/23 13:22
351Fgeroro0430: 太神啦 我的超人 06/23 13:22
352Fkevinftjiang: 愛菜18歲 昨天8打點 今天投8局 06/23 13:22
353Fzvx911: 愛菜生日快樂 06/23 13:22
354Fstevejack: 愛菜生日行情股大漲! 06/23 13:22
355Fericf129: 神神神!!!!!!! 06/23 13:23
356Ftwofaceman: 我的超人777777 06/23 13:23
357Fgalaraga911: 第一打席主審送了兩顆最後保送,還一顆回去還好啦 06/23 13:23
358Fericf129: \MVP/ 06/23 13:23
359Flightning879: 棒球之神... 06/23 13:23
360Fa0952136637: 神 06/23 13:23
361Flinwayne: 一人救全隊,把棒球當籃球打啊 06/23 13:23
362Fttlun: 高中生棒球 06/23 13:23
363Fzxzzzzzzzzzz: 超人類 06/23 13:23
364Fwplinwp: 都給你玩就好了啊 06/23 13:24
365Fschuey: 大谷跟翔平何時才能又一起出場呢~ 06/23 13:24
366Falsta2902: 太神了 06/23 13:24
367Fliumc: 媽問我:為什麼一直磕頭看電視 06/23 13:24
368Fglayking1126: 今天帥死不是笑死 06/23 13:24
369Fcnshi: 留名 06/23 13:24
370Fkjljasosbb: 感動!連兩天看大谷締造歷史,太神啦!辛苦了 06/23 13:24
371FROMEL: 什麼時候能看到翔平在MLB完封勝呢 (期待) 06/23 13:24
372FKazumiLin: 大谷不爽了 愛菜準備去讀醫學院 可能真的怕了 06/23 13:24
373FAfricanchief: 太神 06/23 13:24
374Fabcdeffg: 笑死,打者翔平跟公務員一樣,怎麼對得起投手大谷 06/23 13:24
375Fchrisk0613: 超人 06/23 13:24
376FRL1128: 把大聯盟當電動在打 06/23 13:24
377Fganlinlowsu: 神 06/23 13:24
378Fterminator3: 猛 06/23 13:25
379Fmichael84022: 好帥 06/23 13:25
380Flonetwyl: 他真的是神獸了… 這個合約好難哦 06/23 13:25
381Fjunyi1994: 留名 06/23 13:25
382Fyodilouis: 大檸檬球探:他只是高中生水平 06/23 13:25
383Fmeyu1166: 前面1安2bb感覺不妙 還好有隊友支援 06/23 13:25
384Frickcoo: 笑死 8分打點贏不了,8局0十分總該贏了吧 06/23 13:25
385Fujjgeok: 有種完全比賽 06/23 13:25
386FL1ON: 哼 死處男 06/23 13:25
387Floster: 笑死 強投豪打 06/23 13:26
389Fsharkman1793: 轉到洋基一起拿冠軍 別再天使浪費生命 06/23 13:26
390Fr51211214: 愛菜生日快樂 06/23 13:26
391FY1999: 慶祝愛菜生日啦 06/23 13:26
392Ftomedc14: 留名 06/23 13:26
393Fnemochang: 太扯了 06/23 13:26
394Fstanley2102: 前面1安2bb??是同一場嗎 06/23 13:26
395Fremsuki: 笑死 06/23 13:26
397Fcdsjquiz: 笑死 06/23 13:27
398Fstonys: 乾,都給你玩就好了 06/23 13:27
399FWasJohnWall: 打棒球的周潤發 06/23 13:27
400Fsoria0225: 笑死 昨天八打點贏不了今天直接八局13k才能贏 06/23 13:27
401Fpaul10262: 太神 06/23 13:27
402Fmeyu1166: 是說前三打席喇 06/23 13:27
403Fray88076: 真的猛 06/23 13:27
404Fe2167471: 這個人到底怎麼回事 06/23 13:27
405Fboy88115: 真的當作打電動 06/23 13:27
406FNonegrame: 笑死一天不會投球 一天不會打球 06/23 13:27
407Fasdf70044: 能看到大谷翔平實在太好了 06/23 13:27
408Fnoknow801011: 鬼 06/23 13:27
409Flaihom0808: 哪個媒體說簽他不會贏球的,過來讓我打 06/23 13:27
410FSeTeVen: 太扯了 06/23 13:28
411Fkevinliu1011: 看到…神了… 06/23 13:28
412Fsteve8130477: 神串留名!!! 06/23 13:28
413Forangeray: 還好不是單場8局13k+8打點,不然真的是神了 06/23 13:28
414Fbnmm: 這兩天燃燒小宇宙了 明天好好休息睡到中午吧 06/23 13:28
415FKPfan: 大谷自己想救牛棚 06/23 13:28
416Fccf0423: 投手war大進補 06/23 13:28
417Fbravery1117: 之後新合約到底可以有多少呢...? 06/23 13:28
418Fr45983: 好猛 06/23 13:28
419FePaper: 今天超神 06/23 13:28
420Fsaes870506: 笑死 06/23 13:29
421Fplaydoom: 高中生的神級表現,讚啦 06/23 13:29
422FKMT500: WTF 06/23 13:29
423Falan8980: 神串留名 太神了!! 06/23 13:29
424FKnuckleBall: 外星人的體能 06/23 13:29
425Fshanyanyu: 一打九還虐爆對手的感覺.....宇宙的翔平<(_ _)> 06/23 13:29
426Fbasketone: 笑死 有夠強 06/23 13:30
427Ff87992018: 我的超人,一人救全隊 06/23 13:30
428FDELETE001: 一個人又投又打 還只領一份薪 勞工之恥 06/23 13:30
429Fbefly10015: 快去道奇!! 06/23 13:30
430FTiffanyheart: 大哥不在 只好拼零失分 太強了 06/23 13:30
431FIsinging: 薪資要爆表了 天使壓力大了 06/23 13:31
432FRedchain: 笑死,漫畫都沒那麼扯 06/23 13:31
433Fpucca068: 在同一場就猛了~ 06/23 13:31
434Fmhhe04: 太神 怎麼笑死 06/23 13:31
435Fkaichehong: 蛋蛋是開關 跟去年一樣 06/23 13:31
436Fkoj: 笑死,昨天打八分打點,今天投八局,下次要打八轟嗎? 06/23 13:31
437Fkt40: 笑死 敢不敢so比上季ibb多 06/23 13:31
438Fa1230215: 太神啦 06/23 13:31
439Fnepenthes7: 一下八打點 一下13K 你是人類? 06/23 13:31
440Fcloudin: 看見神了 06/23 13:31
441Fwupirn08: 翔平我的超人 大谷我的神 06/23 13:32
442Fe11491576: 大谷我的超人 06/23 13:32
443Fj19871001: 天使運鈔車準備好沒 06/23 13:32
444Fmeatmm: 還硬吃8局 讓昨天的火牛棚能休息 真的猛 06/23 13:32
445Fjacklinjia: 雙刀人 我的超人 06/23 13:33
446Fntumbakimo: 神串留名 06/23 13:33
447Falan2000: 看上帝了 06/23 13:33
448FlonelyQQ: 棒球之神 06/23 13:33
449Faids893001: 累死 06/23 13:33
450Fritainakano: 大谷:翔平我幫你雪恥了 06/23 13:33
451Fycsheaven: 各隊GM大約都端出來吧 這根本兩份薪水的表現 06/23 13:33
452Forange0319: 大聯盟被大谷當高中生在打 06/23 13:34
453Ftetsu0401: 現實比漫畫還扯.. 06/23 13:34
454FXliao: 棒球被大谷搞成一人運動 真的笑死 06/23 13:34
455FSofaKing: 人一定要靠自己.jpg 06/23 13:34
456Fwww2967: 天使不想給大約其他球隊跪著捧鈔票 06/23 13:35
457Ftovshang: 開無雙了 06/23 13:35
458Fkimuya1127: mlb很強嗎?怎麼亞洲人打得這麼辛苦 06/23 13:35
459Fchris797979: 神串留名 06/23 13:36
460Fwizozd38270: 神串留名 06/23 13:36
461Fgoodplay: 8局無失分創造出來的贏球機會還是勝過了單場8打點 06/23 13:37
462Fwaterspinach: 真的看到神了 太誇張了J個...!! 06/23 13:37
463Fyy222499: 讓他升 06/23 13:37
464FLooming: 比漫畫還扯 06/23 13:37
465Fdog990999: 昨天被火牛搞到輸 今天自己討回來 06/23 13:37
466FDerp: 刷坦對不算啦 06/23 13:38
467Fno821010: 雙刀人 我的超人 06/23 13:38
468Foctangus07: 強 06/23 13:38
469FAxy8: 我的超人 06/23 13:38
470Fhoneytoast: 太神啦 06/23 13:38
471FLheavens: 8打點又13K 真的鬼 06/23 13:38
472Fherisson: 有夠帥的,大谷翔平我愛你♡ 06/23 13:39
473Fcharlie50704: 雖然刷坦隊不過有8局給一下推 06/23 13:39
474FDarvish0831: 最近真的谷神降臨 神 06/23 13:39
475Fbbc0509: 棒球不是一人玩的..... 06/23 13:39
476Fsuzyiuxyu: 我的超人 06/23 13:39
477Ffatedate: 鬼神 06/23 13:40
478Ftrainmay: 108球8局還13K,好猛 06/23 13:40
479Fjeter8695: 跟鬼一樣 06/23 13:40
480FIamJack1: 天使補到這兩個人應該戰績第一名吧 06/23 13:40
481Faaronpwyu: 單人8打點贏不了 只好單人0分了 06/23 13:40
482FRicFlair: 笑死 翔平又不想罩大谷 06/23 13:40
483Fling843286: 神 06/23 13:40
484Fbreadsuper6: 太強了 06/23 13:40
485Fdog990999: 自己拿一堆分贏不了 只好讓對面抱蛋 06/23 13:40
486FNUMB43: 淦投打都給他玩就好了 06/23 13:40
487FNUMB43: 一年7000萬美金的價值 06/23 13:40
488Ft505172003: 好扯 06/23 13:40
489Fbtohsa: 笑死 又強又帥又有錢 太令人羨慕了吧 06/23 13:40
490Fwwf80048: 太神啦 這樣已經是雙槍了吧 還刀 06/23 13:41
491Fapple7146: 太扯 06/23 13:41
492Fq840813: 勞工之恥 06/23 13:41
493Fkauw: 到洋基去拿冠軍,天使沒用 06/23 13:41
494Fnottell: 太扯了大谷 06/23 13:41
495Fahden: 哈哈,翔平你看看你,還不是靠我們大谷 06/23 13:41
496Fhanxiet: 太神 06/23 13:42
497Fb11223456789: 神串留名 06/23 13:42
498FDosTaLiCa: 都給你玩就好啦! 06/23 13:42
499Fctes940008: 可惜沒挑戰完投QQ 06/23 13:42
500Fharunoneko: 神 06/23 13:42
501Fhowarddddads: 我的超人 06/23 13:42
502Fseguignol: 猛 06/23 13:42
503Fh1y2c3y2h1: 笑死 大谷燃燒神級表現,翔平一般般 06/23 13:43
504FScotchWhisky: 笑死 只拿勝投沒打HR 繼續加油 06/23 13:43
505Fsaw0001: 留名 06/23 13:43
506Fqqstory: 越投越帶勁 06/23 13:43
507Fstlinman: 笑死 06/23 13:44
508Fyoyo99931: 我還以為攻防一體是只有NBA 在講的XDDDDDDD 06/23 13:44
509Finternate100: 不用打太好,反正投好一點就行 06/23 13:44
510Fredsox60144: 神串留名 06/23 13:45
511Fchairying: 太神了 06/23 13:45
512Fa7696405: 打8分贏不了,改投8局好了 06/23 13:45
513Fpeter1999125: 扯 06/23 13:45
514Fwarmsnow: 跪著看神人 比漫畫還扯… 06/23 13:46
515Fwangusa: 神串留名 06/23 13:46
516Fweakerman: 等愛菜畢業後,就可以跟他說「人一定要靠自己」 06/23 13:46
517Fjimmy12282: 太神了 06/23 13:46
518Fkimicino: 笑死 超神的 06/23 13:46
519FGRAYMENG: 大谷和翔平與他的快樂夥伴 06/23 13:46
520Fpisces5566: 媽的開外掛啦 06/23 13:46
521Fkb24leo: 不笑了 好神 06/23 13:46
522Fgridmad: 笑死 有夠鬼 06/23 13:46
523FJIYUI: 今天變化球跟鬼一樣 06/23 13:46
524Fguns: 扯 06/23 13:46
525FRLH: 帥 06/23 13:47
526FNTUMedgong: 留名 06/23 13:47
527Fgamma8902: 神! 06/23 13:47
529Fsleeeve: 好噁的力量 06/23 13:47
530Ffinzaghi: 笑死 06/23 13:48
531Fdavid12763: 被裁判拉掉一個BB就是 06/23 13:48
532Fq123212: 笑死 又在奴 06/23 13:49
533Fs06430105: 笑死 06/23 13:49
534Ffoxey: 大谷和翔平一起拿下15K 06/23 13:49
535Fjyings0303: 愛菜生日buff 06/23 13:49
536FDoica2445: 原來棒球可以靠一個人是真的 06/23 13:49
537Fs1188112000: 神啊 06/23 13:49
538Fbaltimore: 今年想拿賽揚獎 06/23 13:50
539Fdelnet: 真的很鬼 神 06/23 13:50
540Fdidder: 神串 06/23 13:50
541Fangeltear15: 太神啦 06/23 13:50
542Fnewstyle: 幾乎都變速球K掉的 06/23 13:50
543Fyu0203: 讚讚 06/23 13:50
544FHyman: 年薪4000萬起跳 06/23 13:50
545Fnewstyle: MLB的大谷投球變得很豪邁 06/23 13:50
546Fnask: 賽揚mvp一起拿我就服 06/23 13:51
547Fdgdgevil: 笑死 06/23 13:51
548Ftammy03: 帥啦留名 06/23 13:51
549Fyangtsur: 太強啦 06/23 13:51
550Fb99202071: 滑曲指叉綜合最佳的一場 06/23 13:52
551Fultratimes: 笑死,你以為靠投球表現能夠讓DH位置贏Alvarez嗎? 06/23 13:52
552Fbeeboombee: 太神啦 06/23 13:52
553Flookers: 變速? 06/23 13:52
554Fultratimes: 美國球迷投票是會真的看你DH的表現,不會因為投手表現 06/23 13:52
555Fultratimes: 去把DH投給你 06/23 13:52
556Fqqq87112: 笑死昨天一人8分 今天一人13K 06/23 13:52
557Fshowtime0227: 打了八分贏不了,鎖死八局總該贏了吧 06/23 13:52
558Fqqq87112: 一人鎖8局 06/23 13:53
559Fxoyster: 有強 日本至寶 06/23 13:53
560Fwuyiulin: 神串留名 06/23 13:54
561Fsumaihui: 我越來越覺得有神明附體這件事 06/23 13:55
562Fevadodoya: 我們就來看看凹大師的話會不會成真 06/23 13:55
563Fnigatsuki: 笑死,真的笑死 06/23 13:55
564FCervelli: 扯... 06/23 13:55
565Frronbang: 今天有贏啊 06/23 13:56
566FBaGaJohn5566: 昨天2hr 8打點 今天8局13k 我看了什麼 06/23 13:56
567Fsawa26: 沈寂幾天 現在又跟鬼一樣 06/23 13:56
568FRoastCorn: 歷史,敬請見證! 06/23 13:56
569FYMSolJack: 太強了 06/23 13:56
570Fw9: 扯 06/23 13:56
571Fphxcon: 10勝有望 06/23 13:57
572Fshaon: 明天榮譽假一天 拜託教練了 06/23 13:57
573Fypyebft: 太神啦 06/23 13:57
574Fyoyo99931: 扯 06/23 13:57
575Fnorthlight: 我谷我谷我谷! 六勝六勝六勝! 06/23 13:57
576Fsixsix666: 明天沒比賽是休息日 06/23 13:58
577FJnAmadeus: 阿鬼 06/23 13:58
578FYoGlolz: 太神啦 06/23 13:58
579Ftonsie: 神 06/23 13:58
580Fangel0620: 太神啦 06/23 13:58
581FDaniel4maste: 笑死,高中生 06/23 13:58
582Frotiars: 太神啦 06/23 13:59
583Fjickey: 愛菜成年了 大谷生氣了 06/23 14:00
584FFirePopcorn: 棒球之神 06/23 14:00
585Fkakain: 然後最專業的鄉民看幾場球就可以判斷大谷最好放棄二刀流, 06/23 14:00
586Fkakain: 然後唱衰他今年開始走下坡沒全明星 06/23 14:00
587Fsal60614: 谷神!!!!!!! 06/23 14:00
588Fnick83823: 好神 06/23 14:00
589Fjeffky: 這裡不是甲子園,不要這樣打。 06/23 14:00
590FVeranoVII: 大谷 我的超人 06/23 14:01
591Ftinghong0515: 雙刀人太神啦 06/23 14:01
592Ffacio124: 笑死 06/23 14:01
593FTiandai: 強投豪打竟然指的是同一個人 笑死 06/23 14:01
594Fanomic24: 既然打8分贏不了,那就讓你們得不了吧 06/23 14:02
595Fken720331: 扯 聽說天使不想續約是不是 給道奇好嗎? 06/23 14:02
596Famy40822: 神谷 06/23 14:02
597Fits0130: 笑死,果然某地方是開關 06/23 14:02
598Fgoodplay: 下一個超狂紀錄大概就是兩件事發生在同一場比賽... 06/23 14:03
599FLMGlikeshit: 這場變化球用量是不是很高啊 06/23 14:03
600Fshomasaki: 又帥又強 06/23 14:03
601Fkjessean: 笑死 我的神 06/23 14:03
602Flongmok2500: 好扯 怪物 06/23 14:03
603Fnoname78531: 都給你玩就好 06/23 14:04
604Fcsyhri: 神 06/23 14:04
605FBaRanKa: 6勝 15轟了 距離10勝30轟 越來越近 06/23 14:05
606Fiichiro51: 勞工之恥,血汗大聯盟 06/23 14:05
607Ftheword: 今天控球相當舒服 主審也幫了幾顆 06/23 14:06
608Fqqstory: 太弱了 有種打8分 13K 同一場完成阿 06/23 14:06
609Fruka660101: 恭喜 辛苦了 06/23 14:06
610Fjajepound: 二弟天下無敵 06/23 14:07
611Fe2167471: 該去宇宙聯盟了吧 地球這小廟已經請不起大佛了 06/23 14:07
612Ftbbyan: 開關確認! 06/23 14:07
613Fkazake: 笑死 破紀錄還要分兩場 06/23 14:07
614Fpkajames: 神 06/23 14:07
615FIcekami: 帥炸了 我的超人 06/23 14:08
616Fkkkim: 神 06/23 14:08
617Fnewstyle: 說不定打擊可以幫助投球,投球可以幫助他打擊,若他專項 06/23 14:08
618FBaRanKa: 我反而希望他不要去太強的隊才更有漫畫感 06/23 14:08
619Fnewstyle: 的話,可能反而弱化那一項~ 06/23 14:08
620FKPfan: 皇家打者都鎖定速球攻擊 變化球當然要丟多一點 06/23 14:08
621Ffacio124: op 06/23 14:08
622Fbigbigcc: 高中生 我的超人 06/23 14:09
623FBaRanKa: 他合約應該是GM拿張白的給他自己寫幾個0才對 06/23 14:09
624Fk1222: 勞工之恥 不敢讓火牛上班 06/23 14:10
625Ficevoices: 史上第一個13K highlight 卻這麼好笑的 06/23 14:10
626Fc251970: 真的有夠神 06/23 14:10
627Fzaza1128: 明天應該放個榮譽假 06/23 14:10
628Fmikazeray: 這個投手昨天打了8打點? 06/23 14:10
629FMLVForgood: 笑死 06/23 14:10
630Foverclock: 整個變大谷遊樂場 06/23 14:11
631Fkenny0111: 打8分還不會贏…我自己來投8局0失分 06/23 14:12
632Fslog881122: 二刀人,我的超人 06/23 14:12
633Fsenkoushojo: 猛 06/23 14:12
634FGetbackers: 勞工之恥 06/23 14:12
635Fopposing0116: 唉只會靠大谷,天使真滴廢 06/23 14:13
636Fa109250405: 我真的開始相信他的開關在褲襠… 06/23 14:14
637FHansonBobo: 神 06/23 14:14
638Fstationary: 笑死,勞工之恥 06/23 14:14
640Fga2006077755: 都給你玩就好了 06/23 14:15
641FPerFrancis: 神啊 笑死 06/23 14:15
642Fheacoun: 超屌 06/23 14:15
643Fe8177919e: 扯真的扯 06/23 14:16
644Fcarbee: 笑死 被打兩安 06/23 14:16
645Ftryit0902: 勞工之恥 06/23 14:18
646FRatucao: 大谷可以改名為神谷了 06/23 14:18
647FHistia: 大谷:人還是要靠自己 翔平:我懂(誤XDDD 06/23 14:19
648Fpazudora: 神 06/23 14:19
649Fxkiller1900: 谷我超 06/23 14:19
650Fasdfg5435: 一人球隊 超強 06/23 14:19
651Fmini817: 神串留名 06/23 14:19
652Froc074: 笑死,比漫畫還扯 06/23 14:20
653Fpiolet: 有神快拜 06/23 14:20
654Frigger1218: 娘子跟牛魔王一起出來見棒球之神 06/23 14:21
655Fhalfmonster: 這季的勝投達成速度真快 06/23 14:21
656Fgalleon2000: 幹 都給你玩就好啦 06/23 14:22
657Fsteany: 把大聯盟當甲子園在打 笑死 06/23 14:23
658Fheshe: 單季十勝應該穩了吧 06/23 14:24
659Fnccu0911: MLB突破不了的高中生 06/23 14:24
660Fmatsu033: 今天是愛菜18歲生日然怪啊! 06/23 14:24
661FGeeBen: 真的跟鬼一樣.. 06/23 14:24
662Fgod2: 不知道該說什麼了 06/23 14:25
663Fkogreece: 太猛 06/23 14:25
664Fe2167471: 每次大谷鬼神表現都有人被釣QQ 06/23 14:25
665Fatk9845: 太神啦 06/23 14:26
666Fian210235: 神鬼奇谷 06/23 14:26
667Fkogreece: 真怪物 06/23 14:27
668Fjay54867: 這人真的誇張== 06/23 14:27
669FIamWea: 大谷 我的超人 06/23 14:27
670Fwtfconk: 天使隊同事上輩子應該都救了國家 06/23 14:29
671FSuntia: 我看了什麼…比漫畫還誇張的男人 06/23 14:29
672Fhdw: 太神了,我看棒球都是為了大谷 06/23 14:29
673Flaughingman: 神串留名 06/23 14:31
674Ftn1983: 比漫畫還扯蛋 06/23 14:31
675Fmokjb4a: 都跟你玩就飽了 06/23 14:31
676Fdiskelvin: 宇宙才是他的極限 06/23 14:32
677Fworthyang: 真的超猛 一人carry整個球隊 06/23 14:33
678Fpochaccofang: 超神 06/23 14:33
679Frickyjessy: 推 06/23 14:34
680Fallen32524: 笑死高中生當甲子園在打 06/23 14:34
681Fyiersan: 扯 06/23 14:34
682Fjimmy508: 笑死,把對手變高中生了 06/23 14:36
683Fcalsdark: 神串留名 06/23 14:36
684Ffishfish1314: 太神啦大谷 06/23 14:37
685Fvisviva: 昨天打8分,今天投13K,這紀錄到我下下輩子應該還在 06/23 14:37
686Fxxgogg: 早上鄉民還擔心大哥不在 06/23 14:38
687FWb2029T: 真的是看到神了 06/23 14:40
688Fak478998: 太強 06/23 14:40
689Fsazabisazabi: 笑死 06/23 14:42
690Fnakayamayyt: 一人扛全隊 06/23 14:43
691Fe04051130: 大谷好厲害! 06/23 14:43
692Fja000123: 乾 太強 06/23 14:44
693FChenpingyaya: 笑死 06/23 14:44
694Fjoewang85: 笑死 最近有料 06/23 14:47
695Fdevilkool: 笑死,哪部主角威能爛漫畫 06/23 14:47
696Fcj34282000: 連兩天神串留名啦 06/23 14:48
697Fjkokpcu: gj 06/23 14:48
698Fquick01: 總A:以後每場球前練習帶小谷來找我 06/23 14:50
699Fleokind: 神串留名 06/23 14:51
700Fwl355062: 笑死,打8分贏不了,直接下去投不讓人得分 06/23 14:52
701Ftimaaa: 神 06/23 14:52
702Fe2c4o6: 完封哪沒有很重要 看看那牛棚 不如自己投 06/23 14:53
703Fandy78714: 太神啦!!!! 06/23 14:53
704Facblily: 昨天八分 今天13K 真的笑死的神 06/23 14:53
705FBusterPosey: 太努力了 06/23 14:54
706Fwestinsane: 太神啦! 06/23 14:55
707Fqazzaq3977: 大谷想要冠軍 06/23 14:55
708Fphotoshark: 有幸活著的時候可以看到 06/23 14:55
709Fqazzaq3977: 去別隊吧 06/23 14:56
710Ftinglottery: 有夠神 真雙棲 06/23 14:56
711Fhijodedios36: 單場15k 太狂了 06/23 14:56
712Ftinglottery: 如果一個棒球隊都是他 肯定冠軍 06/23 14:56
713Fyuffie: 強成這樣笑死 06/23 14:58
714Fsmallken0410: 留名 06/23 14:58
715Fiinn021: 不愧是大谷。 06/23 15:01
716Fsostmr: 太神啦 06/23 15:02
717Fted3306: 13K還好啊很多強投都有過 什麼你說這人昨天8打點? 06/23 15:04
718Fgooddogleg: 昨天沒贏真的超扯 06/23 15:05
719FMrmo: 漫畫都沒這麼扯 06/23 15:05
720Fzxc15793: 開關打開了 帥死 06/23 15:05
721FF299: 都給你玩好了 06/23 15:06
722FWil: 昨天打八分,今天投八局 06/23 15:07
723Fyunita: 第一個保送應該是三振,第一個三振應該是四壞,就當打平啦 06/23 15:08
724Fcn5566: 笑死 真的是一人扛整隊 06/23 15:09
725Fyunita: 主審今天好球帶有時怪怪的 06/23 15:09
726Fpppbruce: 笑死 有夠鬼 06/23 15:09
727Fzzzuuuppp: 難怪日本棒球漫畫沒人看 真人比較誇張 笑死! 06/23 15:09
728Fyoshiringo: 難道..................................我谷生氣惹?? 06/23 15:09
729FUltraKill: 真的當甲子園在玩 06/23 15:10
730Felfsoosuk: 打擊率跟防禦率要黃金交叉了嗎 06/23 15:10
731Fglenliu: 笑到爽死 06/23 15:10
732Fgeedbaka: 太神啦 06/23 15:11
733Fanjackie45: 神啦 06/23 15:11
734Ftakeda0727: 笑死 06/23 15:11
735Fjuncat: 喚醒了小翔平之後就這樣 06/23 15:12
736Fdomoto0101: 天使是6天內至少會贏一場嗎? 06/23 15:14
737Fhisatotea: 神串留名 06/23 15:18
738Fdavidoct12: 當電玩在打 06/23 15:19
739FLeoYuri: 神之子 06/23 15:19
740Fyu0117: 笑死,漫畫都不敢這樣畫 06/23 15:20
741FHybridchaos: 笑死 06/23 15:22
742FTKHOT5566: 好爽喔 06/23 15:22
743Fjeans1020: 日本高中生跟鬼一樣 小說跟漫畫都演給你看了 06/23 15:22
744Fgametv: 笑死,表現的太扯了 06/23 15:25
745Fjqp050502: 真的猛 06/23 15:25
746Fbrianzzy: 猛到笑死 06/23 15:26
747Fchisrvl: 神 06/23 15:28
748Fdanielgogogo: 我以後不看棒球漫畫了 根本沒有大谷的比賽扯…. 06/23 15:28
749Fwaitress: 太神了!!! 06/23 15:28
750Fkiwitse: 愛菜生日快樂 06/23 15:29
751Fjuicyfruit: 太強了......... 06/23 15:29
752Fkenploin: 今年投球真的強 06/23 15:29
753Flongkiss5566: 笑死 18k的打者有人要? 06/23 15:29
754FWickl: 愛菜一成年馬上爆發 06/23 15:31
755Fak47g78: 超神 06/23 15:33
756Fallmygod: 大谷:打太多贏不了 K爆你們總可以了吧 06/23 15:36
757Fhydra7: 一個人carry全隊…. 06/23 15:36
758Fcodehard: 笑死 06/23 15:36
759Ftpot: 大谷與他的快樂夥伴 06/23 15:36
760Fexhenta5566: 太扯了 下張約道奇給了 06/23 15:39
761Fmegalodon35: 神 06/23 15:40
762Fviolu18: 看來以後投球跟打擊都要先開開關了XD 06/23 15:41
763Fmarch28: 神串留名 06/23 15:41
764Froberthutw: 恭喜大谷&翔平 06/23 15:42
765FWanYC: 神串留名 06/23 15:44
767FSimbadd: 神之降臨 06/23 15:48
768Fmmshlovebob: 勞工之恥,做兩件事領一份薪水 06/23 15:54
769FKamelie: 新世界的神 06/23 15:56
770Fmanygod: 一安打兩保送很不錯嚕 06/23 15:56
771Fzhizhi0704: 雖然我沒看棒球但我已經完美理解了他以外的隊友都是廢 06/23 15:59
772Fzhizhi0704: 物這件事了 06/23 15:59
773Fiamsofa: 大谷我滴神 06/23 16:00
774Fs891050: 笑死,都給你玩 06/23 16:01
775FFiveSix911: 笑死 06/23 16:02
776Fsky3012: 真的神 沒得嘴 06/23 16:04
777FO10lOl01O: 漫畫都不敢畫的劇情 再度上演... 06/23 16:05
778Flingling0000: 今天打擊沒有雙響砲 笑死 06/23 16:05
779Fjoe2: 又開始連載漫畫了翔平 06/23 16:06
780Fcarriechu: 好帥 06/23 16:08
781Frockpepper: 真的是有點太神了 06/23 16:10
782Fyoyoyyyy: 都給你玩啊 06/23 16:11
783FYoGaYe0814: 大谷我的超人 06/23 16:11
784Fdynamo: 今天保送應該要多一個的,被拉K那次太明顯壞球了 06/23 16:12
785Fwiwyman: 賽揚+mvp 06/23 16:12
786Fyfguk6685: 漫畫重畫 06/23 16:13
787FYdarvish: 太強 06/23 16:15
788Ftreert314: 我看見神了 06/23 16:17
789FWWIII: 真棒球之神 06/23 16:18
790Fiamjohnny: 愛菜生日快樂 06/23 16:19
791Flazydoggy: 大谷大谷我愛你 06/23 16:21
792Fji394tb: 把MLB當甲子園的男人 06/23 16:23
793Fst94067: 一人稱全隊 06/23 16:24
794Fa91003: 大谷翔平投打表現俱佳!15K宰制比賽! 06/23 16:25
795Fleofu100: 我錯了,一人carry全隊 06/23 16:26
796Fleofu100: 明星賽沒進說不過去 06/23 16:27
797Fk092767: 超強... 06/23 16:27
798Feddy12357: 扯 06/23 16:34
799Feagerbee: 哦,出來看上帝 06/23 16:40
800Ftaebo: 都給你玩就好 06/23 16:40
801Fsmallkop: 打8分贏不了自己投不給得分摟 06/23 16:43
802Fakei23: 10 wins, 30hr 06/23 16:44
803Flf21560: 這就是虛擬人物走出來嗎 06/23 16:45
804Fadata5678: 神 06/23 16:48
805Fvulpuff: 有人可以天才成這樣嗎? 06/23 16:51
806FAbigo: 笑死 終於肯幫忙止敗了 06/23 16:57
807Fdkramses: 今天是大谷高中生 06/23 17:09
808Flunhsu: 笑死 06/23 17:09
809Fkeieykdx: 超強哈 06/23 17:11
810Fmango970422: 笑死 06/23 17:16
811Fntusimmon: 把MLB虐爆 06/23 17:16
812Foasis404: 昨天八分打點不夠好,今天還要13k才夠好 06/23 17:18
813FGreen7979: 這兩天有夠神== 06/23 17:21
814Fsocialhero: 笑死,都給你表現就好 06/23 17:30
815Fhsiehhsing: 太神了吧 mvp吻了吧 06/23 17:35
816Fdaredwolf: 笑死,因為漫畫都不敢這樣畫 06/23 17:39
817Fplanethell: 笑死有夠猛 06/23 17:45
818Fyfchu: 神 06/23 17:51
819Ftdk60714: 猛 06/23 17:52
820Fjpjp927: 神 06/23 17:56
821Fthibw13ug1: 笑死 都給你玩就好了啊 06/23 18:13
822FRichie1105: 前無古人、後無來者了吧,這種基因不多生產報國嗎 06/23 18:15
823Fsulek: 現代神人誒! 06/23 18:15
824Fwitcherysky: 太神啦 06/23 18:20
825Fzapzone: 瘋之谷 06/23 18:25
826Fvltw5v: 一人救全隊 06/23 18:27
827Fwsheep: 笑死 06/23 18:31
828FXinz: 天使應該要全面檢討 以大谷為中心來建置吧… 06/23 18:31
829FBf109G6: 大谷:メジャーリーグ~=甲子園 06/23 18:38
830Fweier08: 神串留名 我到底看了什麼...... 06/23 18:40
831FXinC4707: 笑死 勞工之恥 06/23 18:41
832Fvul3kuo: 一個人打一隊 06/23 18:41
833Fdaviechin: 神 06/23 18:45
834Farbee: 大谷有很猛嗎 哪天遇到翔平還不是被轟假的 06/23 18:59
835FWarIII: 跟鬼一樣 06/23 19:03
836Fxkiller1900: 滿田快哭了 06/23 19:14
837Fhbrel: 也太扯XD 06/23 19:15
838Fskery3188: 一人carry 全隊 06/23 19:29
839Ffrank901212: 留名 06/23 19:35
840FCHJ1412: 大谷 我的超人 06/23 19:45
841Fjwomko: 今天不需要翔平 06/23 20:02
842Fstanny322: 真人版瘋之谷 06/23 20:24
843FChiang51: 太神了 06/23 20:32
844Felliotway: 真的比漫畫還扯... 06/23 20:32
845Fyehbebe0112: 去年是不是也是小谷被胖卡布突襲之後就開始狂轟猛炸 06/23 20:54
846Fyehbebe0112: 莫非開關真在那!? 06/23 20:54
847Ftci902: 棒球大聯盟真是寫實的漫畫呀 06/23 21:26
848Flovefriend: 好神啊!! 真人版棒球大聯盟 06/23 21:54
849Flzsb: 神串留名 06/23 21:56
850Ficeafu: 比漫畫還唬爛 超扯 謝謝他選擇去MLB挑戰 06/23 22:17
851FDoraBoy: 神串留名 06/23 22:21
852Flittlelaba: 大谷:隊友一堆F5 06/23 22:32
853Fa213052002: 這個男人印證棒球是一個人的運動 06/23 22:36
854Fkathy4106: 神 06/23 23:36
855FGodofthebutt: 神 06/23 23:49
856Ffanny0825: 強! 06/24 00:24
857FSMqueen: 太扯了… 06/24 00:35
858Flabihua: :棒球是團隊運動 06/24 00:41
859Fqaz0314: 昨天才打8分耶...我是不是看見上帝了... 06/24 01:36
860Fwisonmann: 笑死!有種就大谷對決翔平啊! 06/24 02:46
861Fwtfconk: 這是一部名為MLB的熱血少年漫畫 06/24 04:39
862FGiroro813: 棒球不是一個人打的.....嗎? 06/24 04:57
863Fshushu4ni: 神 06/24 07:40
864Fmarkkao456: ….這是什麼鬼神表現 06/24 08:38
866Fnplin: 大谷 我的超人 06/24 22:23
867Fhenry0322: 太鬼了 06/25 17:44

完整討論串

留言數 標題 作者 日期
867 >> [分享] 今日大谷翔平 13K創個人新紀錄 Axwell 2022/06/23 13:06:05
105 Re: [分享] 今日大谷翔平 13K創個人新紀錄 polanco 2022/06/23 14:03:23
63 Re: [分享] 今日大谷翔平 13K創個人新紀錄 yftsai 2022/06/23 15:31:48

Baseball 看板熱門文章

43
81
65
119
83
152
118
232
28
44
30
84
33
53

最新文章

0
3
2022/06/29 01:27:28